Wind_Speed
35 36 36 35 35 34 33 33 33 33 33 32 33 33 33 33 33 34 35 35 36 36 36 36 36 37 37 37 37 37 37 38 38 38 37 38 37 37 37 37 37 38 38
37 37 37 36 35 35 34 34 34 33 33 34 34 34 34 34 35 35 35 35 36 36 37 37 36 36 37 37 38 38 38 39 39 39 39 39 39 39 39 39 39 39 40
36 37 37 37 36 35 35 35 34 34 34 34 35 35 34 34 35 35 35 36 37 37 37 36 36 36 37 37 38 38 38 38 38 38 39 40 40 40 41 41 41 41 42
37 37 37 37 37 36 36 35 35 34 34 35 35 35 35 35 35 36 36 37 37 37 36 36 37 37 38 38 38 39 39 39 39 39 39 39 39 41 42 42 42 43 44
37 37 37 37 37 37 36 36 36 35 35 35 35 35 35 36 36 36 37 38 38 38 37 37 38 38 38 38 39 40 39 39 40 40 40 40 40 40 42 42 43 44 44
37 37 37 37 38 37 37 36 36 36 36 36 36 36 35 35 36 36 37 38 38 39 40 39 39 38 38 38 39 40 40 40 40 41 41 41 42 41 41 41 42 44 45
37 37 37 37 38 38 37 37 37 37 37 37 36 36 36 36 36 37 37 38 39 39 40 40 39 39 39 39 39 39 39 39 39 40 41 42 42 42 43 43 43 44 45
38 38 38 38 38 38 38 38 38 38 38 38 38 37 37 37 38 38 38 39 39 39 39 39 39 39 39 39 39 39 39 39 40 41 41 42 42 43 43 44 44 44 45
39 38 39 39 38 38 38 38 38 38 39 39 39 39 38 38 38 38 39 39 40 40 40 40 40 39 39 39 39 40 40 40 40 41 41 42 42 43 44 44 44 44 44
39 39 39 39 40 40 40 39 40 39 39 40 40 40 40 39 39 39 39 39 40 40 40 40 40 41 41 41 41 41 41 41 41 42 42 43 44 43 43 43 43 43 44
40 41 41 41 41 41 40 41 41 41 41 40 40 40 40 41 40 40 40 40 41 41 42 42 42 42 42 43 43 43 42 42 42 43 43 44 44 45 44 44 44 44 44
39 41 42 42 42 42 42 42 42 42 42 42 41 40 40 40 40 41 41 41 41 42 42 43 43 43 43 43 42 42 42 43 43 43 44 44 45 45 44 44 43 44 44
40 41 42 43 44 44 43 43 43 44 44 44 43 42 41 41 41 41 41 42 42 42 43 43 43 43 42 42 43 43 43 43 43 43 43 44 44 44 44 43 44 43 43
40 41 43 43 44 44 44 45 44 44 45 44 44 43 43 42 42 42 42 42 42 43 43 43 43 43 43 43 43 43 43 43 43 43 43 42 43 43 43 44 44 44 45
40 40 42 42 43 43 43 44 45 45 44 44 43 43 43 43 43 43 43 43 43 42 43 43 43 43 43 43 43 43 43 42 42 42 42 42 42 43 43 44 44 44 45
39 40 41 41 41 42 43 43 43 43 43 44 44 43 44 44 44 44 44 43 43 43 43 44 44 44 44 44 44 44 43 43 42 42 42 42 42 42 42 42 44 44 44
39 40 40 41 41 42 41 41 42 43 43 44 44 44 44 44 44 44 43 43 43 43 44 44 44 44 44 44 45 44 44 43 42 42 41 41 42 42 42 42 43 43 44
37 38 38 38 39 40 41 41 42 42 42 43 43 44 45 44 44 44 44 44 44 44 44 44 44 44 44 44 44 44 43 43 42 42 41 41 40 41 42 41 42 42 42
37 37 37 37 37 38 38 39 40 41 41 42 43 44 44 44 44 44 44 43 43 44 43 43 43 43 43 43 42 42 42 41 41 41 41 41 40 40 41 41 41 40 40
37 38 38 37 37 36 36 37 38 39 40 41 42 42 42 43 43 43 43 43 43 42 42 42 41 41 41 41 41 41 40 40 40 39 39 39 39 39 40 40 40 40 40
37 37 37 37 36 36 36 37 37 38 39 40 41 41 41 40 41 41 41 41 41 41 40 40 40 40 40 40 39 39 38 38 38 37 37 37 37 38 38 38 38 38 39
35 35 36 36 36 37 37 36 36 37 38 39 39 39 39 39 39 39 39 39 39 38 38 38 38 38 38 37 38 37 37 37 37 37 36 36 36 37 37 37 37 37 37
35 35 36 37 36 37 37 37 37 37 36 37 37 37 37 37 37 37 36 36 36 36 36 36 36 37 37 37 37 36 36 36 36 36 36 36 36 36 37 37 37 37 38
34 35 36 36 36 37 37 36 36 36 36 36 35 35 35 35 35 34 34 34 33 33 34 34 34 34 35 35 36 36 35 35 36 36 35 35 35 35 35 36 36 37 37
33 34 34 35 35 36 36 36 34 33 33 33 33 33 32 32 33 33 32 32 32 32 32 33 33 33 33 33 34 35 35 36 35 35 35 35 34 35 35 35 36 37 37
30 31 32 32 33 34 34 34 33 32 32 31 30 30 30 30 31 31 31 31 31 30 30 31 32 32 32 32 32 33 34 34 35 35 35 34 34 34 34 34 34 34 34
Wind_Direction
252 251 250 250 251 251 252 252 252 252 251 250 248 250 252 254 254 252 251 251 250 250 251 252 253 253 253 253 254 254 255 256 256 258 258 257 257 257 258 258 258 258 257
251 250 250 250 250 251 252 252 252 252 251 250 249 250 252 253 254 253 252 252 251 250 250 253 253 254 254 254 254 255 255 256 257 258 258 258 259 259 259 258 260 260 259
252 250 249 249 249 250 250 250 252 252 252 250 250 251 253 253 254 253 252 252 251 251 253 254 254 255 256 255 254 255 256 257 258 259 260 259 259 260 259 260 260 260 259
253 250 249 249 249 250 250 249 250 252 252 251 250 251 253 254 254 254 253 252 252 251 254 256 255 256 257 255 254 255 257 258 258 260 261 262 262 262 260 260 261 261 261
252 250 248 248 248 249 249 248 249 250 251 251 251 252 254 254 254 254 253 252 252 252 254 256 256 258 257 256 255 256 258 258 259 260 261 262 263 264 264 263 263 263 263
252 250 249 248 248 249 249 249 248 249 250 251 251 252 253 254 254 254 254 253 254 254 255 257 258 258 257 256 256 257 258 258 259 260 261 262 264 265 266 266 265 264 264
252 250 249 250 249 249 250 250 249 249 250 251 251 252 253 253 254 254 253 254 255 256 256 257 259 258 259 258 258 257 258 260 261 261 261 262 264 265 266 267 266 265 265
250 249 250 250 249 249 250 251 251 251 251 252 253 253 253 254 254 254 254 254 255 256 257 258 258 258 259 258 259 259 259 260 261 261 262 263 264 265 266 267 268 267 267
250 250 249 250 249 250 250 251 252 253 253 253 254 254 254 255 255 255 255 255 255 256 257 258 258 258 258 258 258 259 260 262 262 262 263 263 264 265 267 268 268 269 268
251 250 250 250 250 250 251 251 251 252 253 254 254 254 255 256 255 255 255 255 255 256 257 258 258 258 258 259 259 259 261 262 263 263 263 263 263 265 267 267 268 268 268
252 251 251 250 250 250 250 251 251 252 253 254 255 255 255 255 255 255 255 255 255 256 257 258 259 259 260 261 261 261 261 263 264 264 264 264 263 264 266 267 267 268 268
252 250 250 249 250 251 250 250 251 251 252 254 255 255 254 254 255 255 256 257 257 258 259 259 260 260 260 260 261 261 263 264 264 264 265 265 264 264 265 266 267 267 268
252 251 250 250 251 251 250 250 251 252 252 253 254 255 255 256 256 256 257 257 258 259 259 260 261 262 262 262 262 263 263 264 264 265 265 265 265 264 265 266 266 266 267
253 252 251 251 252 252 252 250 251 253 253 254 254 255 255 256 256 257 257 258 259 260 260 260 261 262 261 262 263 263 264 264 265 265 265 266 266 266 266 266 266 266 268
254 252 252 252 252 253 253 252 251 253 253 253 254 255 255 256 256 257 258 259 260 260 261 261 261 261 261 262 262 263 264 265 265 265 266 266 266 266 266 266 266 267 267
255 253 252 252 252 253 253 252 251 252 253 253 254 254 254 255 256 257 258 260 261 261 261 262 262 262 262 262 262 263 264 264 265 265 265 266 266 266 266 267 267 266 267
256 256 255 253 253 253 252 251 252 253 253 254 255 255 255 256 256 257 259 260 261 262 262 262 262 262 262 262 263 263 263 263 264 265 265 265 265 265 265 266 266 266 267
257 256 254 254 254 253 253 252 252 253 254 254 256 257 258 258 258 258 259 261 262 263 264 264 263 262 262 262 262 262 263 263 263 265 265 265 266 266 266 266 266 267 267
257 256 254 254 254 255 254 253 252 252 253 254 255 257 258 258 259 260 260 262 262 262 263 263 263 262 261 261 261 261 262 263 264 264 265 266 265 266 267 267 267 267 268
257 256 255 254 254 255 255 254 254 254 253 255 256 257 258 258 259 260 261 262 262 262 261 262 261 260 260 261 261 261 261 262 264 265 265 267 267 266 266 267 267 267 268
256 255 255 253 254 255 256 256 257 257 257 257 257 258 259 259 260 261 260 261 261 261 261 260 260 260 259 259 260 261 262 263 264 264 266 266 266 265 265 266 268 269 268
256 255 255 254 255 256 257 257 258 259 259 259 259 258 258 258 259 260 261 261 260 259 259 259 258 258 258 258 259 260 262 263 264 265 266 266 265 265 265 266 267 267 269
257 257 257 257 257 258 258 259 259 259 260 259 259 258 257 258 258 259 260 260 259 258 257 257 256 256 256 256 257 259 261 262 263 265 265 265 264 264 265 265 266 268 269
259 259 258 258 258 258 258 259 259 260 261 260 259 258 257 257 257 257 258 257 257 256 256 256 256 257 257 257 257 258 259 260 261 263 264 265 265 264 264 265 267 269 269
259 260 259 258 257 257 257 258 259 260 261 260 258 256 255 255 255 256 255 256 256 256 255 255 256 257 258 259 259 259 260 261 262 262 263 264 264 264 265 267 268 269 269
260 259 259 258 257 256 256 256 257 259 259 258 258 257 255 254 254 254 254 255 255 255 256 256 256 257 258 259 259 260 261 262 262 262 263 265 265 265 266 268 269 269 270
Height
5698 5700 5702 5703 5705 5707 5708 5710 5712 5714 5716 5718 5720 5722 5724 5725 5727 5729 5731 5733 5735 5737 5739 5742 5744 5746 5748 5750 5752 5754 5756 5758 5760 5762 5764 5765 5768 5770 5772 5773 5775 5777 5778
5688 5690 5692 5694 5696 5698 5700 5702 5704 5705 5707 5710 5712 5714 5716 5717 5719 5720 5722 5724 5726 5729 5731 5733 5736 5737 5739 5741 5743 5745 5747 5749 5751 5753 5755 5757 5759 5761 5763 5765 5766 5767 5769
5679 5680 5682 5685 5687 5689 5691 5693 5695 5697 5699 5701 5703 5705 5707 5708 5710 5711 5713 5715 5718 5720 5723 5725 5727 5729 5730 5732 5734 5736 5738 5740 5742 5744 5746 5747 5750 5752 5754 5755 5757 5758 5759
5669 5671 5673 5676 5678 5680 5682 5684 5686 5689 5691 5692 5695 5697 5698 5700 5702 5703 5705 5707 5709 5711 5714 5716 5718 5720 5721 5723 5725 5727 5729 5731 5733 5734 5736 5738 5740 5742 5744 5745 5746 5747 5749
5660 5662 5664 5666 5669 5671 5673 5675 5678 5679 5682 5684 5686 5688 5689 5691 5693 5695 5696 5698 5700 5702 5705 5707 5709 5710 5711 5713 5715 5717 5719 5721 5723 5725 5726 5728 5730 5731 5733 5735 5736 5737 5738
5650 5652 5654 5657 5659 5661 5664 5666 5668 5670 5672 5675 5677 5679 5681 5682 5684 5686 5688 5690 5692 5693 5696 5698 5699 5700 5702 5703 5705 5708 5710 5711 5713 5715 5716 5717 5719 5721 5722 5723 5725 5726 5727
5640 5643 5645 5647 5650 5652 5654 5656 5659 5661 5663 5666 5668 5670 5672 5674 5675 5677 5679 5681 5683 5684 5686 5688 5690 5691 5692 5694 5696 5698 5700 5701 5703 5705 5706 5707 5708 5710 5711 5711 5713 5714 5715
5631 5633 5635 5637 5640 5642 5645 5647 5649 5652 5654 5656 5658 5660 5662 5664 5666 5668 5670 5672 5673 5675 5676 5678 5680 5681 5683 5685 5686 5688 5690 5692 5693 5694 5695 5696 5697 5698 5699 5700 5701 5702 5703
5620 5623 5625 5628 5630 5633 5635 5637 5639 5642 5644 5646 5648 5650 5652 5654 5656 5658 5660 5662 5664 5665 5667 5668 5670 5672 5673 5675 5677 5678 5680 5681 5682 5683 5684 5685 5686 5687 5688 5688 5689 5690 5690
5611 5613 5615 5618 5620 5623 5625 5627 5629 5632 5634 5636 5638 5640 5642 5644 5646 5648 5650 5652 5654 5655 5657 5658 5660 5662 5663 5665 5666 5668 5669 5670 5671 5672 5673 5674 5675 5676 5676 5676 5677 5678 5678
5600 5603 5605 5607 5610 5612 5615 5617 5619 5621 5623 5626 5628 5630 5632 5634 5636 5638 5640 5642 5644 5645 5647 5648 5650 5651 5653 5654 5655 5657 5658 5659 5660 5661 5662 5663 5663 5664 5665 5665 5666 5666 5667
5589 5591 5594 5596 5599 5601 5604 5606 5608 5610 5613 5615 5617 5619 5622 5624 5626 5628 5630 5632 5633 5635 5636 5638 5639 5640 5641 5643 5644 5645 5646 5647 5648 5649 5650 5651 5651 5652 5653 5654 5654 5655 5656
5578 5580 5582 5585 5587 5590 5592 5594 5597 5599 5602 5604 5606 5609 5611 5613 5615 5617 5619 5621 5623 5624 5625 5627 5628 5629 5630 5631 5633 5634 5635 5636 5637 5638 5638 5639 5640 5640 5641 5642 5643 5644 5644
5566 5569 5571 5573 5575 5577 5580 5582 5585 5587 5590 5593 5595 5598 5600 5602 5604 5606 5608 5610 5612 5613 5614 5616 5617 5618 5619 5621 5622 5623 5624 5625 5626 5626 5627 5628 5628 5629 5630 5630 5631 5632 5632
5555 5557 5559 5561 5563 5565 5568 5570 5573 5576 5578 5581 5584 5586 5588 5591 5593 5595 5597 5599 5600 5602 5603 5604 5606 5607 5608 5609 5610 5611 5612 5613 5614 5615 5616 5616 5617 5618 5618 5619 5619 5620 5621
5544 5546 5548 5550 5552 5554 5556 5559 5562 5564 5566 5569 5572 5574 5577 5579 5581 5583 5585 5587 5589 5590 5591 5593 5594 5595 5597 5598 5598 5599 5601 5602 5603 5604 5605 5605 5606 5606 5607 5607 5608 5608 5609
5533 5535 5537 5538 5540 5542 5545 5547 5550 5552 5555 5557 5560 5562 5564 5567 5569 5571 5573 5575 5576 5578 5579 5580 5582 5583 5585 5585 5587 5587 5589 5590 5591 5592 5593 5594 5594 5595 5595 5596 5596 5597 5597
5523 5525 5527 5528 5530 5531 5533 5536 5538 5541 5543 5546 5548 5550 5552 5555 5557 5559 5561 5562 5564 5565 5567 5568 5569 5571 5573 5573 5575 5576 5577 5578 5580 5581 5582 5582 5583 5583 5584 5585 5585 5586 5586
5513 5515 5517 5518 5520 5521 5523 5525 5528 5530 5532 5534 5536 5538 5540 5542 5544 5546 5548 5550 5551 5553 5554 5556 5557 5559 5560 5561 5562 5564 5565 5567 5568 5569 5570 5571 5571 5572 5573 5573 5574 5575 5575
5503 5505 5507 5508 5510 5512 5514 5515 5517 5519 5521 5523 5525 5526 5528 5530 5532 5534 5536 5538 5539 5541 5542 5544 5545 5547 5548 5550 5551 5552 5554 5556 5557 5558 5559 5559 5560 5560 5561 5562 5563 5564 5564
5493 5495 5497 5498 5500 5502 5504 5506 5507 5509 5510 5511 5513 5514 5516 5518 5520 5522 5524 5525 5527 5529 5530 5532 5534 5535 5537 5539 5540 5541 5543 5544 5546 5547 5548 5548 5549 5549 5550 5551 5552 5553 5553
5483 5485 5487 5488 5490 5492 5494 5496 5497 5498 5500 5501 5502 5503 5504 5506 5508 5510 5512 5514 5515 5517 5519 5521 5522 5524 5526 5528 5530 5531 5532 5534 5535 5537 5537 5538 5538 5539 5540 5540 5541 5542 5542
5473 5474 5476 5478 5480 5481 5483 5485 5486 5488 5489 5490 5491 5492 5494 5495 5497 5499 5501 5502 5504 5506 5508 5510 5512 5514 5516 5517 5519 5521 5522 5523 5525 5526 5527 5527 5528 5528 5529 5530 5530 5531 5532
5462 5463 5465 5467 5469 5471 5472 5474 5475 5477 5478 5479 5481 5482 5484 5485 5487 5489 5490 5492 5494 5496 5498 5500 5502 5504 5505 5507 5509 5510 5512 5513 5514 5515 5516 5517 5517 5518 5518 5519 5520 5520 5521
5451 5453 5454 5456 5458 5460 5461 5463 5464 5466 5468 5469 5471 5472 5474 5476 5477 5479 5481 5482 5484 5486 5488 5490 5492 5494 5496 5497 5499 5500 5502 5503 5504 5505 5506 5507 5507 5508 5508 5509 5509 5510 5510
5441 5443 5444 5446 5448 5449 5451 5453 5454 5456 5458 5460 5461 5463 5465 5467 5468 5470 5472 5473 5475 5477 5479 5481 5482 5484 5486 5487 5489 5490 5491 5492 5494 5495 5496 5496 5497 5498 5498 5499 5499 5499 5499